Change the Weather History Date:

Sunday, March 2, 2014

  Actual Average Record
Temperature  
Mean Temperature 10 °F -  
Max Temperature 17 °F 40 °F 69 °F (1991)
Min Temperature 3 °F 23 °F -10 °F (1980)
Degree Days  
Heating Degree Days 55    
Moisture  
Dew Point 6 °F    
Average Humidity 80    
Maximum Humidity 92    
Minimum Humidity 51    
Precipitation  
Precipitation 0.08 in - - ()
Sea Level Pressure  
Sea Level Pressure 30.25 in    
Wind  
Wind Speed 7 mph (NW)    
Max Wind Speed 10 mph    
Max Gust Speed -    
Visibility 4 miles    
Events Snow    
Averages and records for this station are not official NWS values.
T = Trace of Precipitation, MM = Missing Value Source: NWS Daily Summary

Daily Weather History Graph

Daily Weather History Graph

Search for Another Location

Airport or City:

Trip Planner

Search our weather history database for the weather conditions in past years. The results will help you decide how hot, cold, wet, or windy it might be!

Date:

Astronomy

Mar. 02, 2014 Rise Set
Actual Time 6:50 AM EST 6:08 PM EST
Civil Twilight 6:22 AM EST 6:36 PM EST
Nautical Twilight 5:50 AM EST 7:08 PM EST
Astronomical Twilight 5:17 AM EST 7:41 PM EST
Moon 7:18 AM EST (3/2) 8:05 PM EST (3/2)
Length of Visible Light 12h 13m
Length of Day
11h 17m
Waxing Crescent, 3% of the Moon is Illuminated
Mar 2
Waxing Crescent
Mar 8
First Quarter
Mar 16
Full
Mar 23
Last Quarter
Mar 30
New

Hourly Weather History & Observations

Time (EST) Temp. Windchill Dew Point Humidity Pressure Visibility Wind Dir Wind Speed Gust Speed Precip Events Conditions
12:11 AM 17.1 °F 5.8 °F 14.0 °F 88% 30.21 in 1.2 mi North 9.2 mph - 0.01 in Snow Light Snow
12:23 AM 17.1 °F 6.6 °F 14.0 °F 88% 30.20 in 1.0 mi NNW 8.1 mph - 0.02 in Snow Light Snow
12:30 AM 17.1 °F 6.6 °F 14.0 °F 88% 30.20 in 0.8 mi NNW 8.1 mph - 0.03 in Snow Light Snow
12:53 AM 17.1 °F 6.6 °F 12.9 °F 84% 30.24 in 0.8 mi NNW 8.1 mph - 0.04 in Snow Light Snow
1:27 AM 16.0 °F 5.3 °F 12.9 °F 88% 30.23 in 1.0 mi NNW 8.1 mph - 0.02 in Snow Light Snow
1:38 AM 16.0 °F 6.3 °F 12.9 °F 88% 30.22 in 0.8 mi NNW 6.9 mph - 0.02 in Snow Light Snow
1:44 AM 16.0 °F 6.3 °F 12.0 °F 84% 30.23 in 1.2 mi NNW 6.9 mph - 0.02 in Snow Light Snow
1:53 AM 16.0 °F 6.3 °F 12.9 °F 88% 30.25 in 1.0 mi NNW 6.9 mph - 0.02 in Snow Light Snow
2:01 AM 15.1 °F 4.2 °F 12.0 °F 88% 30.22 in 1.5 mi NNW 8.1 mph - 0.00 in Snow Light Snow
2:14 AM 15.1 °F 3.3 °F 12.0 °F 88% 30.22 in 1.0 mi NNW 9.2 mph - 0.01 in Snow Light Snow
2:21 AM 14.0 °F 2.0 °F 10.9 °F 88% 30.22 in 1.2 mi NNW 9.2 mph - 0.01 in Snow Light Snow
2:53 AM 14.0 °F 3.9 °F 10.9 °F 88% 30.25 in 2.5 mi NNW 6.9 mph - 0.01 in Snow Light Snow
3:02 AM 14.0 °F 2.9 °F 10.9 °F 88% 30.21 in 1.8 mi NNW 8.1 mph - 0.00 in Snow Light Snow
3:13 AM 14.0 °F 2.9 °F 10.0 °F 84% 30.22 in 1.0 mi NNW 8.1 mph - 0.00 in Snow Light Snow
3:17 AM 14.0 °F 2.9 °F 10.0 °F 84% 30.21 in 1.2 mi North 8.1 mph - 0.00 in Snow Light Snow
3:27 AM 14.0 °F 3.9 °F 10.0 °F 84% 30.21 in 1.5 mi NNW 6.9 mph - 0.00 in Snow Light Snow
3:51 AM 12.2 °F 0.7 °F 10.4 °F 92% 30.21 in 1.5 mi NW 8.1 mph - 0.00 in Snow Light Snow
3:53 AM 12.9 °F 1.6 °F 10.0 °F 88% 30.25 in 1.8 mi NNW 8.1 mph - 0.00 in Snow Light Snow
4:02 AM 12.9 °F 3.8 °F 9.0 °F 84% 30.21 in 2.0 mi NNW 5.8 mph - 0.00 in Snow Light Snow
4:15 AM 12.9 °F 2.6 °F 9.0 °F 84% 30.22 in 2.5 mi NNW 6.9 mph - 0.00 in Snow Light Snow
4:24 AM 12.9 °F 5.2 °F 10.0 °F 88% 30.22 in 2.0 mi NNW 4.6 mph - 0.00 in Snow Light Snow
4:31 AM 12.9 °F 1.6 °F 10.0 °F 88% 30.22 in 1.5 mi NNW 8.1 mph - 0.00 in Snow Light Snow
4:53 AM 12.0 °F 0.5 °F 9.0 °F 88% 30.26 in 1.5 mi NNW 8.1 mph - 0.01 in Snow Light Snow
5:00 AM 12.0 °F 0.5 °F 8.1 °F 84% 30.23 in 1.2 mi NNW 8.1 mph - 0.00 in Snow Light Snow
5:53 AM 10.9 °F -0.8 °F 8.1 °F 88% 30.29 in 1.8 mi NNW 8.1 mph - 0.00 in Snow Light Snow
6:01 AM 10.9 °F 0.2 °F 8.1 °F 88% 30.25 in 2.5 mi NW 6.9 mph - 0.00 in Snow Light Snow
6:20 AM 10.9 °F 1.4 °F 7.0 °F 84% 30.25 in 1.5 mi NW 5.8 mph - 0.00 in Snow Light Snow
6:37 AM 10.9 °F 1.4 °F 7.0 °F 84% 30.25 in 2.0 mi WNW 5.8 mph - 0.00 in Snow Light Snow
6:46 AM 10.9 °F 0.2 °F 7.0 °F 84% 30.26 in 1.5 mi WNW 6.9 mph - 0.00 in Snow Light Snow
6:53 AM 10.0 °F 1.8 °F 7.0 °F 87% 30.29 in 1.2 mi NW 4.6 mph - 0.00 in Snow Light Snow
7:05 AM 10.0 °F -0.9 °F 7.0 °F 87% 30.26 in 1.2 mi NW 6.9 mph - 0.00 in Snow Light Snow
7:13 AM 10.0 °F -0.9 °F 7.0 °F 87% 30.26 in 1.0 mi NW 6.9 mph - 0.00 in Snow Light Snow
7:23 AM 10.0 °F -2.9 °F 6.1 °F 84% 30.25 in 0.8 mi NW 9.2 mph - 0.00 in Snow Light Snow
7:48 AM 10.4 °F 0.8 °F 5.0 °F 79% 30.26 in 1.0 mi NW 5.8 mph - 0.00 in Snow Light Snow
7:53 AM 10.0 °F 1.8 °F 5.0 °F 80% 30.30 in 1.2 mi NW 4.6 mph - 0.00 in Snow Light Snow
8:00 AM 10.0 °F -0.9 °F 5.0 °F 80% 30.27 in 0.8 mi NW 6.9 mph - 0.00 in Snow Light Snow
8:13 AM 10.0 °F -0.9 °F 5.0 °F 80% 30.26 in 1.2 mi NNW 6.9 mph - 0.00 in Snow Light Snow
8:32 AM 10.0 °F 0.4 °F 5.0 °F 80% 30.27 in 1.0 mi NNW 5.8 mph - 0.00 in Snow Light Snow
8:48 AM 10.4 °F -0.4 °F 5.0 °F 79% 30.27 in 1.0 mi WNW 6.9 mph - 0.00 in Snow Light Snow
8:53 AM 10.0 °F -1.9 °F 5.0 °F 80% 30.32 in 1.0 mi NW 8.1 mph - 0.00 in Snow Light Snow
9:06 AM 10.0 °F -0.9 °F 5.0 °F 80% 30.28 in 0.8 mi NW 6.9 mph - 0.00 in Snow Light Snow
9:18 AM 10.0 °F 0.4 °F 5.0 °F 80% 30.28 in 1.2 mi WNW 5.8 mph - 0.00 in Snow Light Snow
9:23 AM 10.0 °F -0.9 °F 5.0 °F 80% 30.28 in 3.0 mi WNW 6.9 mph - 0.00 in Snow Light Snow
9:45 AM 10.0 °F -0.9 °F 5.0 °F 80% 30.27 in 8.0 mi NW 6.9 mph - 0.00 in   Overcast
9:53 AM 10.0 °F 1.8 °F 5.0 °F 80% 30.30 in 6.0 mi NW 4.6 mph - 0.00 in   Haze
10:53 AM 10.0 °F 1.8 °F 3.9 °F 76% 30.29 in 9.0 mi WNW 4.6 mph - 0.00 in   Overcast
11:48 AM 10.4 °F 0.8 °F 5.0 °F 79% 30.23 in 2.0 mi NW 5.8 mph - 0.00 in Snow Light Snow
11:53 AM 10.9 °F 2.9 °F 5.0 °F 77% 30.28 in 3.0 mi Variable 4.6 mph - 0.00 in   Haze
12:53 PM 10.9 °F -1.8 °F 3.0 °F 70% 30.28 in 10.0 mi NW 9.2 mph - 0.00 in   Scattered Clouds
1:53 PM 10.9 °F 0.2 °F 1.9 °F 67% 30.27 in 10.0 mi West 6.9 mph - N/A   Overcast
2:53 PM 10.9 °F -2.6 °F -0.9 °F 59% 30.26 in 10.0 mi West 10.4 mph - N/A   Overcast
3:53 PM 12.0 °F 0.5 °F -0.9 °F 56% 30.26 in 10.0 mi West 8.1 mph - N/A   Partly Cloudy
4:53 PM 10.9 °F -1.8 °F -4.0 °F 51% 30.26 in 10.0 mi WNW 9.2 mph - N/A   Partly Cloudy
5:53 PM 10.0 °F -1.9 °F -4.0 °F 53% 30.25 in 10.0 mi West 8.1 mph - N/A   Clear
6:53 PM 10.0 °F 0.4 °F -4.0 °F 53% 30.27 in 10.0 mi West 5.8 mph - N/A   Clear
7:53 PM 8.1 °F -3.2 °F -2.9 °F 61% 30.28 in 10.0 mi West 6.9 mph - N/A   Clear
8:53 PM 7.0 °F -3.3 °F -2.9 °F 64% 30.28 in 10.0 mi WNW 5.8 mph - N/A   Clear
9:53 PM 5.0 °F -4.1 °F -4.0 °F 66% 30.30 in 10.0 mi WNW 4.6 mph - N/A   Clear
10:53 PM 3.9 °F -6.9 °F -5.1 °F 66% 30.32 in 10.0 mi West 5.8 mph - N/A   Clear
11:53 PM 3.0 °F -6.4 °F -6.0 °F 66% 30.32 in 10.0 mi West 4.6 mph - N/A   Clear